Regional Weather Roundup
Issued by NWS

Home | Current Version | Previous Version | Text Only | Print | Product List | Glossary On
Versions: 1 2 3 4 5 6 7 8 9 10 11 12 13 14 15 16 17 18 19 20 21 22 23 24 25 26 27 28 29 30 31 32 33 34 35 36 37 38 39 40 41 42 43 44 45 46 47 48 49 50
000
ASUS43 KLSX 171907
RWRMO

WEATHER SUMMARY FOR MISSOURI
NATIONAL WEATHER SERVICE SPRINGFIELD MO
200 PM CDT WED SEP 17 2014

NOTE: "FAIR" INDICATES FEW OR NO CLOUDS BELOW 12,000 FEET WITH NO
       SIGNIFICANT WEATHER AND/OR OBSTRUCTIONS TO VISIBILITY.
       CURRENT SKY AND/OR WEATHER CONDITIONS ARE NOT AVAILABLE FOR
       CHILLICOTHE AND FARMINGTON.

MOZ001>031-035>038-043-044-053-054-172000-
...NORTHERN AND WESTERN MISSOURI...

CITY           SKY/WX    TMP DP  RH WIND       PRES   REMARKS
KANSAS CTY INT CLOUDY    71  66  84 E6        29.93F
KANSAS C DTWN  CLOUDY    72  66  81 E5        29.91F
LEE`S SUMMIT   CLOUDY    69  66  90 E3        29.93F
ST JOSEPH      CLOUDY    73  65  75 NE3       29.92F
CHILLICOTHE      N/A     74  65  73 S5        29.94F
KIRKSVILLE     PTSUNNY   70  62  76 VRB5      29.96F

$$
MOZ066>068-077>081-088>096-101>105-172000-
...SOUTHWEST MISSOURI...

CITY           SKY/WX    TMP DP  RH WIND       PRES   REMARKS
SPRINGFIELD    CLOUDY    65  63  93 SE10      29.97F
JOPLIN         MOSUNNY   86  71  60 W14       29.90F HX  91

$$
MOZ032>034-039>042-045>050-055>058-069>072-172000-
...CENTRAL MISSOURI...

CITY           SKY/WX    TMP DP  RH WIND       PRES   REMARKS
COLUMBIA       CLOUDY    65  63  93 E6        29.94F
JEFFERSON CITY CLOUDY    70  64  81 E5        29.93F
ROLLA          CLOUDY    66  61  84 S9        29.94F
SEDALIA        CLOUDY    71  66  84 CALM      29.93F
WHITEMAN AFB   CLOUDY    71  67  87 E2        29.92F
OSAGE BEACH    CLOUDY    70  64  83 S6        29.93F

$$
MOZ051-052-059>065-172000-
...EAST CENTRAL MISSOURI...

CITY           SKY/WX    TMP DP  RH WIND       PRES   REMARKS
ST LOUIS INTL  PTSUNNY   64  57  78 E8        29.98F
SPIRIT OF STL  PTSUNNY   67  58  72 E7        29.96F
ST CHARLES     CLOUDY    61  57  87 E12       29.97F

$$
MOZ072>076-082>087-097>100-106>115-172000-
...SOUTH CENTRAL AND SOUTHEAST MISSOURI...

CITY           SKY/WX    TMP DP  RH WIND       PRES   REMARKS
CAPE GIRARDEAU CLOUDY    63  58  83 SE8       29.98F
FARMINGTON     CLOUDY    57  55  94 SE6       30.00F
POPLAR BLUFF   CLOUDY    59  55  87 S6        29.95F FOG
WEST PLAINS    LGT RAIN  62  60  93 S12       29.96F FOG

$$



USA.gov is the U.S. government's official web portal to all federal, state and local government web resources and services.